VKG358 EKCH-VTSP

Flight info

Callsign VKG358
Flight time N/A
Altitude 31000
Route SIMEG Z493 XELOL DCT TUPUR DCT ADVAB DCT VAGSA DCT ELGOX P193 KELEL DCT KEKED/N0489F330 DCT KARIL DCT URELA DCT BIRLU DCT UDROS UM859 KARDE UN644 ROLIN DCT LAGAS M747 SUBUT T923 ERLEV M11 RODAR A909 ABEKO/N0488F350 A909 LEMOD N644 REGET J145 DI A466 DPN L759 LEMEX/N0495F370 L759 SATVA SATVA1C
Aircraft B77W/H-SDE1E2E3FGHIJ2J3J4J5M1RWXY/LB1D1

Departure

Time 2026-05-08 04:29
Airport Copenhagen Kastrup Airport (EKCH)

Arrival

Time N/A
Airport Phuket International Airport (VTSP)
Time Latitude Longitude Altitude Speed Heading
2026-05-08 04:08 55.62362 12.65073 29 ft 0 kts 276°
2026-05-08 04:16 55.62361 12.65110 27 ft 4 kts 271°
2026-05-08 04:17 55.62360 12.65158 26 ft 4 kts 272°
2026-05-08 04:17 55.62358 12.65195 26 ft 4 kts 303°
2026-05-08 04:17 55.62347 12.65217 27 ft 4 kts 338°
2026-05-08 04:17 55.62347 12.65227 26 ft 4 kts 31°
2026-05-08 04:18 55.62336 12.65211 24 ft 4 kts 21°
2026-05-08 04:18 55.62323 12.65205 26 ft 2 kts 346°
2026-05-08 04:18 55.62308 12.65216 24 ft 4 kts 311°
2026-05-08 04:18 55.62294 12.65247 27 ft 4 kts 296°
2026-05-08 04:19 55.62287 12.65288 26 ft 4 kts 273°
2026-05-08 04:19 55.62287 12.65315 25 ft 0 kts 276°
2026-05-08 04:21 55.62288 12.65299 26 ft 3 kts 276°
2026-05-08 04:21 55.62279 12.65235 26 ft 7 kts 231°
2026-05-08 04:21 55.62226 12.65190 28 ft 9 kts 204°
2026-05-08 04:21 55.62174 12.65138 29 ft 9 kts 211°
2026-05-08 04:22 55.62123 12.65079 29 ft 9 kts 213°
2026-05-08 04:22 55.62068 12.65014 29 ft 10 kts 213°
2026-05-08 04:22 55.62009 12.64945 29 ft 10 kts 213°
2026-05-08 04:22 55.61944 12.64872 28 ft 11 kts 213°
2026-05-08 04:23 55.61878 12.64796 28 ft 11 kts 213°
2026-05-08 04:23 55.61811 12.64720 28 ft 11 kts 213°
2026-05-08 04:23 55.61744 12.64644 28 ft 11 kts 213°
2026-05-08 04:23 55.61677 12.64567 28 ft 12 kts 213°
2026-05-08 04:24 55.61605 12.64484 28 ft 12 kts 213°
2026-05-08 04:24 55.61533 12.64400 29 ft 12 kts 213°
2026-05-08 04:24 55.61455 12.64309 28 ft 16 kts 212°
2026-05-08 04:24 55.61353 12.64193 28 ft 18 kts 212°
2026-05-08 04:25 55.61248 12.64073 28 ft 17 kts 213°
2026-05-08 04:25 55.61151 12.63962 28 ft 16 kts 213°
2026-05-08 04:25 55.61064 12.63861 28 ft 14 kts 213°
2026-05-08 04:25 55.60984 12.63769 28 ft 13 kts 213°
2026-05-08 04:26 55.60913 12.63688 28 ft 11 kts 213°
2026-05-08 04:26 55.60849 12.63614 28 ft 12 kts 213°
2026-05-08 04:26 55.60763 12.63516 28 ft 18 kts 213°
2026-05-08 04:26 55.60650 12.63378 28 ft 20 kts 218°
2026-05-08 04:27 55.60546 12.63219 28 ft 20 kts 221°
2026-05-08 04:27 55.60469 12.63123 28 ft 10 kts 196°
2026-05-08 04:27 55.60404 12.63161 29 ft 10 kts 136°
2026-05-08 04:27 55.60357 12.63257 30 ft 10 kts 129°
2026-05-08 04:28 55.60336 12.63335 31 ft 6 kts 79°
2026-05-08 04:28 55.60371 12.63395 30 ft 14 kts 41°
2026-05-08 04:28 55.60581 12.63720 28 ft 76 kts 41°
2026-05-08 04:28 55.61159 12.64616 28 ft 144 kts 41°
2026-05-08 04:29 55.62056 12.65995 101 ft 188 kts 40°
2026-05-08 04:29 55.63042 12.67453 808 ft 185 kts 41°
2026-05-08 04:29 55.64032 12.68971 1429 ft 189 kts 42°
2026-05-08 04:29 55.65033 12.70522 1906 ft 196 kts 43°
2026-05-08 04:30 55.66102 12.72177 2140 ft 209 kts 41°
2026-05-08 04:30 55.67210 12.73838 2626 ft 211 kts 41°
2026-05-08 04:30 55.68385 12.75570 2877 ft 228 kts 40°
2026-05-08 04:30 55.69634 12.77397 3294 ft 238 kts 40°
2026-05-08 04:31 55.70866 12.79462 3595 ft 251 kts 55°
2026-05-08 04:31 55.71530 12.82318 4024 ft 257 kts 87°
2026-05-08 04:31 55.71187 12.85389 4677 ft 256 kts 120°
2026-05-08 04:31 55.69947 12.87600 5351 ft 259 kts 152°
2026-05-08 04:32 55.68228 12.88609 5872 ft 262 kts 163°
2026-05-08 04:32 55.66458 12.89469 6521 ft 265 kts 161°
2026-05-08 04:32 55.64693 12.90451 7147 ft 267 kts 159°
2026-05-08 04:32 55.62931 12.91516 7746 ft 268 kts 159°
2026-05-08 04:33 55.61090 12.92087 8213 ft 277 kts 184°
2026-05-08 04:33 55.59257 12.90989 8723 ft 284 kts 212°
2026-05-08 04:33 55.57791 12.88634 9250 ft 287 kts 225°
2026-05-08 04:33 55.56401 12.86050 9777 ft 292 kts 224°
2026-05-08 04:34 55.54988 12.83454 10392 ft 294 kts 224°
2026-05-08 04:34 55.53541 12.80810 10699 ft 308 kts 224°
2026-05-08 04:34 55.51856 12.78387 10782 ft 320 kts 203°
2026-05-08 04:34 55.49660 12.77518 10940 ft 333 kts 176°
2026-05-08 04:35 55.47318 12.77974 11092 ft 348 kts 170°
2026-05-08 04:35 55.44862 12.78576 11393 ft 363 kts 171°
2026-05-08 04:35 55.42325 12.79163 11923 ft 372 kts 171°
2026-05-08 04:35 55.39738 12.79732 12613 ft 377 kts 172°
2026-05-08 04:36 55.37157 12.80454 13284 ft 376 kts 162°
2026-05-08 04:36 55.34826 12.82559 13824 ft 382 kts 139°
2026-05-08 04:36 55.33083 12.86058 14512 ft 383 kts 121°
2026-05-08 04:36 55.31998 12.90321 15184 ft 384 kts 104°
2026-05-08 04:37 55.31425 12.94924 15684 ft 390 kts 101°
2026-05-08 04:37 55.30909 12.99635 16285 ft 395 kts 101°
2026-05-08 04:37 55.30395 13.04390 16980 ft 398 kts 101°
2026-05-08 04:37 55.29865 13.09185 17619 ft 403 kts 101°
2026-05-08 04:38 55.29320 13.13974 18195 ft 408 kts 101°
2026-05-08 04:38 55.28739 13.18954 18766 ft 413 kts 102°
2026-05-08 04:38 55.28160 13.23846 19328 ft 417 kts 102°
2026-05-08 04:38 55.27564 13.28835 19925 ft 419 kts 102°
2026-05-08 04:39 55.26962 13.33855 20493 ft 422 kts 102°
2026-05-08 04:39 55.26355 13.38913 21041 ft 426 kts 102°
2026-05-08 04:39 55.25738 13.44017 21566 ft 430 kts 102°
2026-05-08 04:39 55.25006 13.49087 22006 ft 432 kts 111°
2026-05-08 04:40 55.23476 13.53629 22342 ft 436 kts 131°
2026-05-08 04:40 55.21416 13.57535 22743 ft 439 kts 132°
2026-05-08 04:40 55.19360 13.61521 23221 ft 443 kts 131°
2026-05-08 04:40 55.17315 13.65586 23767 ft 446 kts 131°
2026-05-08 04:41 55.15274 13.69685 24237 ft 448 kts 130°
2026-05-08 04:41 55.13232 13.73800 24705 ft 449 kts 130°
2026-05-08 04:41 55.11179 13.77933 25163 ft 451 kts 130°
2026-05-08 04:41 55.09112 13.82083 25596 ft 454 kts 130°
2026-05-08 04:42 55.07036 13.86240 26007 ft 456 kts 130°
2026-05-08 04:42 55.04942 13.90422 26399 ft 459 kts 130°
2026-05-08 04:42 55.02835 13.94622 26796 ft 461 kts 130°
2026-05-08 04:42 55.00717 13.98836 27188 ft 464 kts 130°
2026-05-08 04:43 54.98586 14.03071 27571 ft 466 kts 130°
2026-05-08 04:43 54.96443 14.07321 27940 ft 468 kts 130°
2026-05-08 04:43 54.94289 14.11586 28282 ft 471 kts 130°
2026-05-08 04:43 54.92025 14.15722 28638 ft 473 kts 135°
2026-05-08 04:44 54.89530 14.19481 28965 ft 477 kts 141°
2026-05-08 04:44 54.86809 14.22803 29272 ft 479 kts 144°
2026-05-08 04:44 54.84042 14.26045 29560 ft 481 kts 144°
2026-05-08 04:44 54.81273 14.29332 29835 ft 483 kts 144°
2026-05-08 04:45 54.78508 14.32662 30125 ft 485 kts 144°
2026-05-08 04:45 54.75735 14.35992 30423 ft 485 kts 144°
2026-05-08 04:45 54.72928 14.39219 30767 ft 484 kts 146°
2026-05-08 04:45 54.70107 14.42382 31104 ft 483 kts 146°
2026-05-08 04:46 54.64424 14.48706 31214 ft 487 kts 146°
2026-05-08 04:46 54.58768 14.55030 31210 ft 482 kts 146°
2026-05-08 04:47 54.53148 14.61331 31221 ft 482 kts 146°
2026-05-08 04:47 54.47519 14.67626 31220 ft 483 kts 146°
2026-05-08 04:48 54.41871 14.73917 31214 ft 484 kts 146°
2026-05-08 04:48 54.36205 14.80207 31209 ft 486 kts 146°
2026-05-08 04:49 54.30524 14.86492 31205 ft 487 kts 147°
2026-05-08 04:49 54.24649 14.92270 31204 ft 488 kts 154°
2026-05-08 04:50 54.18507 14.97241 31205 ft 489 kts 154°
2026-05-08 04:50 54.12348 15.02215 31205 ft 490 kts 154°
2026-05-08 04:51 54.06183 15.07234 31204 ft 492 kts 154°
2026-05-08 04:51 54.00008 15.12271 31199 ft 493 kts 154°
2026-05-08 04:52 53.93866 15.17266 31202 ft 493 kts 154°
2026-05-08 04:52 53.87680 15.22278 31193 ft 493 kts 154°
2026-05-08 04:53 53.81493 15.27273 31194 ft 492 kts 154°
2026-05-08 04:53 53.75311 15.32247 31194 ft 492 kts 154°
2026-05-08 04:54 53.69130 15.37204 31189 ft 492 kts 154°
2026-05-08 04:54 53.62938 15.42154 31187 ft 493 kts 154°
2026-05-08 04:55 53.56734 15.47097 31185 ft 493 kts 154°
2026-05-08 04:55 53.50523 15.52030 31185 ft 494 kts 154°
2026-05-08 04:56 53.44297 15.56959 31181 ft 495 kts 154°
2026-05-08 04:56 53.38058 15.61881 31181 ft 496 kts 154°
2026-05-08 04:57 53.31806 15.66799 31179 ft 497 kts 154°
2026-05-08 04:57 53.25544 15.71709 31174 ft 497 kts 154°
2026-05-08 04:58 53.19279 15.76607 31174 ft 497 kts 154°
2026-05-08 04:58 53.13059 15.81472 31169 ft 497 kts 153°
2026-05-08 04:59 53.07983 15.86094 31173 ft 496 kts 150°
2026-05-08 04:59 53.01000 15.92673 31165 ft 496 kts 150°
2026-05-08 05:00 52.94979 15.98301 31163 ft 497 kts 150°
2026-05-08 05:00 52.88951 16.03891 31160 ft 497 kts 150°
2026-05-08 05:01 52.82913 16.09467 31163 ft 497 kts 151°
2026-05-08 05:01 52.76871 16.15029 31169 ft 497 kts 151°
2026-05-08 05:02 52.71805 16.19681 31161 ft 498 kts 151°
2026-05-08 05:02 52.65750 16.25224 31158 ft 498 kts 151°
2026-05-08 05:03 52.59689 16.30755 31158 ft 498 kts 151°
2026-05-08 05:03 52.53668 16.36233 31150 ft 498 kts 151°
2026-05-08 05:04 52.47603 16.41733 31146 ft 498 kts 152°
2026-05-08 05:04 52.41541 16.47213 31144 ft 497 kts 152°
2026-05-08 05:05 52.35480 16.52675 31138 ft 497 kts 152°
2026-05-08 05:05 52.29415 16.58123 31136 ft 497 kts 152°
2026-05-08 05:06 52.23350 16.63555 31140 ft 497 kts 152°
2026-05-08 05:06 52.17284 16.68973 31142 ft 497 kts 152°
2026-05-08 05:07 52.11268 16.74533 31144 ft 497 kts 148°
2026-05-08 05:07 52.05481 16.80687 31150 ft 497 kts 147°
2026-05-08 05:08 51.99703 16.86841 31144 ft 497 kts 148°
2026-05-08 05:08 51.93917 16.92947 31147 ft 496 kts 148°
2026-05-08 05:09 51.88126 16.99019 31140 ft 495 kts 148°
2026-05-08 05:09 51.82339 17.05067 31145 ft 495 kts 148°
2026-05-08 05:10 51.73671 17.14092 31142 ft 493 kts 148°
2026-05-08 05:11 51.67901 17.20078 31136 ft 493 kts 148°
2026-05-08 05:11 51.62142 17.26035 31133 ft 491 kts 149°
2026-05-08 05:12 51.56394 17.31962 31134 ft 490 kts 149°
2026-05-08 05:12 51.50660 17.37856 31132 ft 489 kts 149°
2026-05-08 05:13 51.44940 17.43719 31131 ft 488 kts 149°
2026-05-08 05:13 51.39224 17.49562 31130 ft 487 kts 149°
2026-05-08 05:14 51.33514 17.55381 31126 ft 486 kts 149°
2026-05-08 05:14 51.27821 17.61058 31126 ft 485 kts 150°
2026-05-08 05:15 51.22073 17.66687 31119 ft 485 kts 150°
2026-05-08 05:15 51.16331 17.72305 31117 ft 484 kts 150°
2026-05-08 05:16 51.10595 17.77918 31114 ft 484 kts 150°
2026-05-08 05:16 51.04857 17.83521 31116 ft 484 kts 150°
2026-05-08 05:17 50.99125 17.89103 31116 ft 483 kts 151°
2026-05-08 05:17 50.93388 17.94672 31110 ft 483 kts 151°
2026-05-08 05:18 50.87652 18.00223 31109 ft 483 kts 151°
2026-05-08 05:18 50.81920 18.05755 31103 ft 482 kts 151°
2026-05-08 05:19 50.76190 18.11269 31097 ft 482 kts 151°
2026-05-08 05:19 50.70462 18.16765 31103 ft 482 kts 151°
2026-05-08 05:20 50.64733 18.22248 31094 ft 482 kts 151°
2026-05-08 05:20 50.59006 18.27730 31094 ft 482 kts 150°
2026-05-08 05:21 50.53699 18.34225 31093 ft 487 kts 138°
2026-05-08 05:21 50.48910 18.41745 31094 ft 487 kts 137°
2026-05-08 05:22 50.44117 18.49252 31087 ft 487 kts 138°
2026-05-08 05:22 50.39328 18.56669 31077 ft 488 kts 138°
2026-05-08 05:23 50.34458 18.64157 31093 ft 487 kts 139°
2026-05-08 05:23 50.29651 18.71521 31083 ft 486 kts 139°
2026-05-08 05:24 50.24815 18.78909 31081 ft 486 kts 139°
2026-05-08 05:24 50.19975 18.86283 31063 ft 486 kts 139°
2026-05-08 05:25 50.15139 18.93631 31071 ft 485 kts 139°
2026-05-08 05:25 50.10299 19.00961 31068 ft 485 kts 139°
2026-05-08 05:26 50.05456 19.08275 31067 ft 485 kts 139°
2026-05-08 05:26 50.00608 19.15574 31064 ft 485 kts 139°
2026-05-08 05:27 49.95757 19.22856 31060 ft 485 kts 139°
2026-05-08 05:27 49.90894 19.30135 31060 ft 486 kts 139°
2026-05-08 05:28 49.86027 19.37399 31059 ft 486 kts 139°
2026-05-08 05:28 49.81152 19.44653 31051 ft 486 kts 139°
2026-05-08 05:29 49.76267 19.51901 31053 ft 486 kts 139°
2026-05-08 05:29 49.71382 19.59126 31055 ft 487 kts 140°
2026-05-08 05:30 49.66485 19.66349 31054 ft 487 kts 140°
2026-05-08 05:30 49.61586 19.73557 31053 ft 487 kts 140°
2026-05-08 05:31 49.56680 19.80749 31057 ft 487 kts 140°
2026-05-08 05:31 49.51774 19.87923 31042 ft 486 kts 140°
2026-05-08 05:32 49.46869 19.95074 31051 ft 486 kts 140°
2026-05-08 05:32 49.41960 20.02210 31042 ft 485 kts 140°
2026-05-08 05:33 49.37055 20.09323 31059 ft 485 kts 141°
2026-05-08 05:33 49.32147 20.16419 31058 ft 484 kts 141°
2026-05-08 05:34 49.27237 20.23494 31027 ft 485 kts 141°
2026-05-08 05:34 49.22324 20.30552 31039 ft 484 kts 141°
2026-05-08 05:35 49.17415 20.37588 31045 ft 484 kts 141°
2026-05-08 05:35 49.12503 20.44611 31045 ft 484 kts 141°
2026-05-08 05:36 49.07586 20.51619 31047 ft 483 kts 142°
2026-05-08 05:36 49.02666 20.58615 31036 ft 483 kts 142°
2026-05-08 05:37 48.97746 20.65589 31035 ft 483 kts 142°
2026-05-08 05:37 48.92823 20.72546 31035 ft 483 kts 142°
2026-05-08 05:38 48.87900 20.79484 31034 ft 482 kts 142°
2026-05-08 05:38 48.82975 20.86408 31047 ft 482 kts 142°
2026-05-08 05:39 48.78078 20.93272 31040 ft 482 kts 142°
2026-05-08 05:39 48.73148 21.00164 31045 ft 482 kts 142°
2026-05-08 05:40 48.68212 21.07043 31039 ft 482 kts 142°
2026-05-08 05:40 48.63277 21.13903 31033 ft 482 kts 142°
2026-05-08 05:41 48.58343 21.20745 31041 ft 481 kts 143°
2026-05-08 05:41 48.53407 21.27571 31050 ft 481 kts 143°
2026-05-08 05:42 48.48693 21.34792 31044 ft 484 kts 138°
2026-05-08 05:42 48.44102 21.42234 31040 ft 485 kts 138°
2026-05-08 05:43 48.39497 21.49665 31035 ft 485 kts 138°
2026-05-08 05:43 48.34873 21.57072 31037 ft 486 kts 138°
2026-05-08 05:44 48.30238 21.64461 31038 ft 486 kts 138°
2026-05-08 05:44 48.25597 21.71840 31043 ft 486 kts 138°
2026-05-08 05:45 48.20950 21.79208 31041 ft 486 kts 138°
2026-05-08 05:45 48.16329 21.86516 31041 ft 486 kts 138°
2026-05-08 05:46 48.11668 21.93865 31042 ft 487 kts 138°
2026-05-08 05:46 48.06991 22.01218 31161 ft 490 kts 138°
2026-05-08 05:46 48.04641 22.04905 31453 ft 489 kts 138°
2026-05-08 05:47 48.02297 22.08580 31794 ft 488 kts 138°
2026-05-08 05:47 47.99961 22.12238 32155 ft 486 kts 138°
2026-05-08 05:47 47.97628 22.15885 32490 ft 485 kts 138°
2026-05-08 05:47 47.95298 22.19521 32771 ft 485 kts 138°
2026-05-08 05:48 47.92965 22.23155 32970 ft 485 kts 138°
2026-05-08 05:48 47.89073 22.29207 33039 ft 487 kts 138°
2026-05-08 05:49 47.83600 22.37703 33040 ft 485 kts 138°
2026-05-08 05:49 47.79727 22.43717 33054 ft 484 kts 137°
2026-05-08 05:50 47.75494 22.51544 33065 ft 487 kts 131°
2026-05-08 05:50 47.71390 22.59552 33075 ft 488 kts 131°
2026-05-08 05:51 47.67251 22.67572 33060 ft 490 kts 132°
2026-05-08 05:51 47.63082 22.75576 33066 ft 490 kts 132°
2026-05-08 05:52 47.58901 22.83559 33066 ft 491 kts 132°
2026-05-08 05:52 47.54704 22.91545 33078 ft 491 kts 132°
2026-05-08 05:53 47.50497 22.99530 33055 ft 492 kts 132°
2026-05-08 05:53 47.46285 23.07505 33067 ft 492 kts 132°
2026-05-08 05:54 47.42069 23.15464 33052 ft 492 kts 132°
2026-05-08 05:54 47.37863 23.23379 33054 ft 492 kts 132°
2026-05-08 05:55 47.33666 23.31257 33052 ft 492 kts 132°
2026-05-08 05:55 47.29430 23.39182 33065 ft 493 kts 132°
2026-05-08 05:56 47.25182 23.47109 33056 ft 493 kts 132°
2026-05-08 05:56 47.20926 23.55027 33052 ft 493 kts 132°
2026-05-08 05:57 47.16664 23.62934 33054 ft 494 kts 132°
2026-05-08 05:57 47.12388 23.70841 33051 ft 495 kts 132°
2026-05-08 05:58 47.08102 23.78748 33055 ft 495 kts 132°
2026-05-08 05:58 47.03807 23.86649 33049 ft 495 kts 132°
2026-05-08 05:59 46.99509 23.94532 33057 ft 494 kts 133°
2026-05-08 05:59 46.95216 24.02382 33066 ft 493 kts 133°
2026-05-08 06:00 46.90923 24.10208 33056 ft 493 kts 133°
2026-05-08 06:00 46.86624 24.18024 33047 ft 493 kts 133°
2026-05-08 06:01 46.82317 24.25834 33040 ft 494 kts 133°
2026-05-08 06:01 46.78003 24.33633 33050 ft 494 kts 133°
2026-05-08 06:02 46.73677 24.41432 33050 ft 495 kts 133°
2026-05-08 06:02 46.69334 24.49240 33046 ft 496 kts 133°
2026-05-08 06:03 46.65014 24.56983 33048 ft 496 kts 133°
2026-05-08 06:03 46.60654 24.64779 33049 ft 497 kts 133°
2026-05-08 06:04 46.56286 24.72565 33047 ft 497 kts 133°
2026-05-08 06:04 46.51907 24.80350 33052 ft 497 kts 133°
2026-05-08 06:05 46.47522 24.88122 33049 ft 498 kts 133°
2026-05-08 06:05 46.43125 24.95894 33063 ft 498 kts 133°
2026-05-08 06:06 46.38726 25.03648 33067 ft 498 kts 133°
2026-05-08 06:06 46.34319 25.11396 33074 ft 498 kts 133°
2026-05-08 06:07 46.29903 25.19136 33070 ft 499 kts 133°
2026-05-08 06:07 46.25481 25.26866 33073 ft 499 kts 133°
2026-05-08 06:08 46.21052 25.34585 33071 ft 499 kts 133°
2026-05-08 06:08 46.16611 25.42303 33062 ft 500 kts 133°
2026-05-08 06:09 46.12165 25.50011 33065 ft 500 kts 133°
2026-05-08 06:09 46.07713 25.57707 33069 ft 500 kts 133°
2026-05-08 06:10 46.03250 25.65400 33063 ft 500 kts 133°
2026-05-08 06:10 45.98782 25.73081 33063 ft 500 kts 133°
2026-05-08 06:11 45.94310 25.80748 33067 ft 501 kts 133°
2026-05-08 06:11 45.89833 25.88401 33077 ft 500 kts 133°
2026-05-08 06:12 45.85350 25.96044 33059 ft 501 kts 133°
2026-05-08 06:12 45.80863 26.03674 33068 ft 500 kts 133°
2026-05-08 06:13 45.76369 26.11293 33065 ft 500 kts 133°
2026-05-08 06:13 45.71872 26.18898 33061 ft 501 kts 133°
2026-05-08 06:14 45.67370 26.26491 33061 ft 501 kts 133°
2026-05-08 06:14 45.62860 26.34075 33062 ft 501 kts 133°
2026-05-08 06:15 45.58340 26.41657 33064 ft 501 kts 133°
2026-05-08 06:15 45.53844 26.49181 33056 ft 502 kts 133°
2026-05-08 06:16 45.49309 26.56747 33066 ft 502 kts 133°
2026-05-08 06:16 45.44674 26.64175 33065 ft 502 kts 135°
2026-05-08 06:17 45.37623 26.75198 33054 ft 502 kts 135°
2026-05-08 06:17 45.32932 26.82551 33060 ft 502 kts 134°
2026-05-08 06:18 45.28245 26.89905 33080 ft 502 kts 134°
2026-05-08 06:18 45.23560 26.97239 33077 ft 501 kts 134°
2026-05-08 06:19 45.18872 27.04559 33076 ft 501 kts 134°
2026-05-08 06:19 45.14177 27.11868 33076 ft 501 kts 134°
2026-05-08 06:20 45.09479 27.19162 33076 ft 501 kts 134°
2026-05-08 06:20 45.05793 27.24871 33079 ft 499 kts 134°
2026-05-08 06:21 45.01096 27.32129 33078 ft 501 kts 134°
2026-05-08 06:21 44.96378 27.39399 33072 ft 503 kts 134°
2026-05-08 06:22 44.91642 27.46679 33077 ft 504 kts 134°
2026-05-08 06:22 44.86890 27.53966 33078 ft 505 kts 134°
2026-05-08 06:23 44.82129 27.61246 33073 ft 505 kts 134°
2026-05-08 06:23 44.77360 27.68519 33071 ft 505 kts 134°
2026-05-08 06:24 44.72590 27.75776 33075 ft 505 kts 134°
2026-05-08 06:24 44.67824 27.83007 33077 ft 504 kts 134°
2026-05-08 06:25 44.63054 27.90225 33077 ft 504 kts 134°
2026-05-08 06:25 44.58281 27.97430 33083 ft 504 kts 134°
2026-05-08 06:26 44.53507 28.04616 33085 ft 504 kts 134°
2026-05-08 06:26 44.48729 28.11791 33089 ft 503 kts 134°
2026-05-08 06:27 44.43948 28.18951 33093 ft 503 kts 134°
2026-05-08 06:27 44.39162 28.26101 33098 ft 503 kts 134°
2026-05-08 06:28 44.34377 28.33232 33100 ft 503 kts 134°
2026-05-08 06:28 44.29588 28.40349 33103 ft 503 kts 134°
2026-05-08 06:29 44.24800 28.47448 33102 ft 502 kts 134°
2026-05-08 06:29 44.20007 28.54535 33101 ft 502 kts 134°
2026-05-08 06:30 44.15212 28.61609 33101 ft 502 kts 134°
2026-05-08 06:30 44.10419 28.68664 33101 ft 502 kts 134°
2026-05-08 06:31 44.05622 28.75706 33102 ft 501 kts 134°
2026-05-08 06:31 44.00791 28.82693 33108 ft 501 kts 135°
2026-05-08 06:32 43.95946 28.89634 33108 ft 500 kts 135°
2026-05-08 06:32 43.91103 28.96564 33118 ft 500 kts 135°
2026-05-08 06:33 43.86263 29.03484 33119 ft 500 kts 135°
2026-05-08 06:33 43.81421 29.10395 33116 ft 499 kts 135°
2026-05-08 06:34 43.77400 29.16122 33116 ft 499 kts 135°
2026-05-08 06:34 43.71775 29.24112 33119 ft 498 kts 135°
2026-05-08 06:35 43.66936 29.30966 33121 ft 498 kts 135°
2026-05-08 06:35 43.62096 29.37805 33128 ft 498 kts 135°
2026-05-08 06:36 43.58040 29.43524 33124 ft 498 kts 135°
2026-05-08 06:36 43.52410 29.51443 33121 ft 497 kts 135°
2026-05-08 06:37 43.48348 29.57141 33125 ft 497 kts 135°
2026-05-08 06:37 43.43498 29.63932 33121 ft 497 kts 135°
2026-05-08 06:38 43.38643 29.70711 33126 ft 497 kts 135°
2026-05-08 06:38 43.33784 29.77480 33126 ft 498 kts 135°
2026-05-08 06:39 43.28948 29.84202 33124 ft 498 kts 135°
2026-05-08 06:39 43.24076 29.90956 33123 ft 498 kts 136°
2026-05-08 06:40 43.19195 29.97707 33125 ft 498 kts 136°
2026-05-08 06:40 43.14308 30.04450 33129 ft 499 kts 136°
2026-05-08 06:41 43.09416 30.11184 33129 ft 499 kts 136°
2026-05-08 06:41 43.04514 30.17915 33128 ft 499 kts 136°
2026-05-08 06:42 42.99611 30.24632 33127 ft 499 kts 136°
2026-05-08 06:42 42.94702 30.31340 33132 ft 499 kts 136°
2026-05-08 06:43 42.89787 30.38043 33123 ft 500 kts 136°
2026-05-08 06:43 42.84871 30.44730 33124 ft 500 kts 136°
2026-05-08 06:44 42.79946 30.51416 33143 ft 500 kts 136°
2026-05-08 06:44 42.75414 30.58523 33142 ft 498 kts 120°
2026-05-08 06:45 42.72950 30.67284 33131 ft 497 kts 98°
2026-05-08 06:45 42.72063 30.76603 33140 ft 498 kts 96°
2026-05-08 06:46 42.71210 30.85903 33132 ft 500 kts 96°
2026-05-08 06:46 42.70281 30.95292 33138 ft 502 kts 97°
2026-05-08 06:47 42.69308 31.04693 33135 ft 502 kts 97°
2026-05-08 06:47 42.68324 31.14085 33141 ft 502 kts 97°
2026-05-08 06:48 42.67336 31.23470 33145 ft 501 kts 97°
2026-05-08 06:48 42.66345 31.32836 33146 ft 501 kts 97°
2026-05-08 06:49 42.65346 31.42197 33140 ft 500 kts 97°
2026-05-08 06:49 42.64340 31.51547 33141 ft 500 kts 97°
2026-05-08 06:50 42.63326 31.60899 33143 ft 500 kts 97°
2026-05-08 06:50 42.62304 31.70251 33149 ft 501 kts 97°
2026-05-08 06:51 42.61274 31.79604 33146 ft 501 kts 96°
2026-05-08 06:51 42.60236 31.88962 33143 ft 502 kts 96°
2026-05-08 06:52 42.59190 31.98334 33145 ft 502 kts 96°
2026-05-08 06:52 42.58071 32.07687 33143 ft 503 kts 97°
2026-05-08 06:53 42.56967 32.17049 33153 ft 503 kts 96°
2026-05-08 06:53 42.55914 32.26423 33155 ft 503 kts 96°
2026-05-08 06:54 42.54846 32.35799 33156 ft 503 kts 96°
2026-05-08 06:54 42.53759 32.45164 33157 ft 503 kts 96°
2026-05-08 06:55 42.52659 32.54533 33156 ft 503 kts 96°
2026-05-08 06:55 42.51552 32.63900 33155 ft 503 kts 96°
2026-05-08 06:56 42.50446 32.73194 33158 ft 503 kts 96°
2026-05-08 06:56 42.49324 32.82562 33159 ft 503 kts 96°
2026-05-08 06:57 42.48196 32.91919 33160 ft 503 kts 96°
2026-05-08 06:57 42.47059 33.01279 33163 ft 504 kts 96°
2026-05-08 06:58 42.45915 33.10638 33160 ft 504 kts 96°
2026-05-08 06:58 42.44769 33.19989 33158 ft 503 kts 96°
2026-05-08 06:59 42.43624 33.29341 33165 ft 503 kts 96°
2026-05-08 06:59 42.42474 33.38687 33165 ft 503 kts 96°
2026-05-08 07:00 42.41307 33.48020 33166 ft 503 kts 96°
2026-05-08 07:00 42.40117 33.57350 33163 ft 503 kts 96°
2026-05-08 07:01 42.38923 33.66673 33164 ft 503 kts 96°
2026-05-08 07:01 42.37725 33.75985 33170 ft 503 kts 96°
2026-05-08 07:02 42.36521 33.85294 33178 ft 503 kts 96°
2026-05-08 07:02 42.35309 33.94598 33162 ft 502 kts 96°
2026-05-08 07:03 42.34102 34.03833 33180 ft 502 kts 96°
2026-05-08 07:03 42.32881 34.13125 33172 ft 502 kts 97°
2026-05-08 07:04 42.31653 34.22408 33171 ft 502 kts 97°
2026-05-08 07:04 42.30421 34.31676 33170 ft 501 kts 97°
2026-05-08 07:05 42.29181 34.40927 33169 ft 500 kts 97°
2026-05-08 07:05 42.27918 34.50164 33176 ft 500 kts 97°
2026-05-08 07:06 42.26648 34.59375 33172 ft 499 kts 97°
2026-05-08 07:06 42.25376 34.68570 33175 ft 498 kts 97°
2026-05-08 07:07 42.24101 34.77747 33187 ft 497 kts 97°
2026-05-08 07:07 42.22821 34.86907 33190 ft 496 kts 97°
2026-05-08 07:08 42.21542 34.96052 33198 ft 496 kts 98°
2026-05-08 07:08 42.20257 35.05182 33202 ft 495 kts 98°
2026-05-08 07:09 42.18967 35.14297 33199 ft 495 kts 98°
2026-05-08 07:09 42.17671 35.23395 33205 ft 494 kts 98°
2026-05-08 07:10 42.16371 35.32476 33200 ft 493 kts 98°
2026-05-08 07:10 42.15065 35.41546 33197 ft 493 kts 98°
2026-05-08 07:11 42.13755 35.50602 33190 ft 492 kts 98°
2026-05-08 07:11 42.12444 35.59646 33194 ft 492 kts 98°
2026-05-08 07:12 42.11127 35.68678 33195 ft 491 kts 98°
2026-05-08 07:12 42.09805 35.77695 33195 ft 491 kts 99°
2026-05-08 07:13 42.08476 35.86700 33195 ft 490 kts 99°
2026-05-08 07:13 42.07142 35.95696 33196 ft 490 kts 99°
2026-05-08 07:14 42.05802 36.04674 33195 ft 489 kts 99°
2026-05-08 07:14 42.04466 36.13576 33201 ft 489 kts 99°
2026-05-08 07:15 42.03116 36.22527 33198 ft 488 kts 99°
2026-05-08 07:15 42.01759 36.31470 33200 ft 488 kts 99°
2026-05-08 07:16 42.00397 36.40401 33203 ft 488 kts 99°
2026-05-08 07:16 41.99027 36.49328 33205 ft 487 kts 99°
2026-05-08 07:17 41.97652 36.58246 33206 ft 487 kts 99°
2026-05-08 07:17 41.96270 36.67156 33201 ft 487 kts 99°
2026-05-08 07:18 41.94881 36.76070 33207 ft 487 kts 99°
2026-05-08 07:18 41.93486 36.84970 33205 ft 487 kts 99°
2026-05-08 07:19 41.92085 36.93866 33206 ft 487 kts 99°
2026-05-08 07:19 41.90710 37.02769 33209 ft 486 kts 96°
2026-05-08 07:20 41.90197 37.11752 33218 ft 481 kts 88°
2026-05-08 07:20 41.90118 37.20741 33209 ft 482 kts 88°
2026-05-08 07:21 41.90019 37.29741 33208 ft 482 kts 88°
2026-05-08 07:21 41.89885 37.38738 33211 ft 482 kts 88°
2026-05-08 07:22 41.89732 37.47742 33212 ft 482 kts 88°
2026-05-08 07:22 41.89571 37.56738 33212 ft 482 kts 88°
2026-05-08 07:23 41.89433 37.64209 33208 ft 482 kts 88°
2026-05-08 07:23 41.89261 37.73192 33211 ft 481 kts 88°
2026-05-08 07:24 41.89083 37.82163 33209 ft 481 kts 88°
2026-05-08 07:24 41.88867 37.92580 33213 ft 480 kts 88°
2026-05-08 07:25 41.88674 38.01533 33213 ft 480 kts 88°
2026-05-08 07:26 41.88405 38.13501 33211 ft 479 kts 88°
2026-05-08 07:26 41.88196 38.22440 33215 ft 479 kts 88°
2026-05-08 07:27 41.87981 38.31380 33215 ft 479 kts 88°
2026-05-08 07:27 41.87758 38.40315 33218 ft 479 kts 89°
2026-05-08 07:28 41.87528 38.49250 33207 ft 479 kts 89°
2026-05-08 07:28 41.87291 38.58187 33225 ft 479 kts 89°
2026-05-08 07:29 41.87048 38.67119 33212 ft 479 kts 89°
2026-05-08 07:29 41.86798 38.76052 33224 ft 479 kts 89°
2026-05-08 07:30 41.86540 38.84993 33221 ft 479 kts 89°
2026-05-08 07:30 41.86277 38.93867 33224 ft 479 kts 89°
2026-05-08 07:31 41.86006 39.02801 33220 ft 479 kts 89°
2026-05-08 07:31 41.85728 39.11732 33211 ft 479 kts 89°
2026-05-08 07:32 41.85443 39.20655 33220 ft 479 kts 89°
2026-05-08 07:32 41.85152 39.29582 33218 ft 479 kts 89°
2026-05-08 07:33 41.84853 39.38505 33225 ft 479 kts 89°
2026-05-08 07:33 41.84549 39.47420 33217 ft 479 kts 89°
2026-05-08 07:34 41.84240 39.56329 33215 ft 478 kts 89°
2026-05-08 07:34 41.83936 39.65238 33216 ft 478 kts 89°
2026-05-08 07:35 41.83626 39.74139 33217 ft 478 kts 89°
2026-05-08 07:35 41.83309 39.83038 33215 ft 478 kts 89°
2026-05-08 07:36 41.82984 39.91928 33218 ft 478 kts 89°
2026-05-08 07:36 41.82653 40.00829 33216 ft 477 kts 90°
2026-05-08 07:37 41.82316 40.09715 33225 ft 477 kts 90°
2026-05-08 07:37 41.81962 40.18599 33216 ft 477 kts 90°
2026-05-08 07:38 41.81583 40.27487 33217 ft 477 kts 90°
2026-05-08 07:38 41.81199 40.36372 33216 ft 477 kts 90°
2026-05-08 07:39 41.80812 40.45247 33210 ft 477 kts 90°
2026-05-08 07:39 41.80421 40.54063 33217 ft 477 kts 90°
2026-05-08 07:40 41.80022 40.62930 33220 ft 477 kts 90°
2026-05-08 07:40 41.79608 40.71797 33216 ft 477 kts 90°
2026-05-08 07:41 41.79172 40.80663 33213 ft 477 kts 90°
2026-05-08 07:41 41.78729 40.89528 33219 ft 477 kts 90°
2026-05-08 07:42 41.78283 40.98387 33212 ft 477 kts 90°
2026-05-08 07:42 41.77830 41.07247 33209 ft 476 kts 91°
2026-05-08 07:43 41.77371 41.16101 33212 ft 476 kts 91°
2026-05-08 07:43 41.76906 41.24956 33212 ft 477 kts 91°
2026-05-08 07:44 41.76433 41.33809 33207 ft 477 kts 91°
2026-05-08 07:44 41.75953 41.42661 33211 ft 477 kts 91°
2026-05-08 07:45 41.75467 41.51511 33211 ft 477 kts 91°
2026-05-08 07:45 41.74974 41.60365 33210 ft 477 kts 91°
2026-05-08 07:46 41.74474 41.69222 33208 ft 477 kts 91°
2026-05-08 07:46 41.73966 41.78082 33213 ft 478 kts 91°
2026-05-08 07:47 41.73451 41.86952 33209 ft 478 kts 91°
2026-05-08 07:47 41.72929 41.95833 33194 ft 479 kts 92°
2026-05-08 07:48 41.72399 42.04731 33186 ft 480 kts 92°
2026-05-08 07:48 41.71861 42.13628 33183 ft 480 kts 92°
2026-05-08 07:49 41.71316 42.22519 33177 ft 479 kts 92°
2026-05-08 07:49 41.70764 42.31417 33182 ft 480 kts 92°
2026-05-08 07:50 41.70208 42.40314 33179 ft 480 kts 92°
2026-05-08 07:50 41.69644 42.49207 33170 ft 480 kts 92°
2026-05-08 07:51 41.69074 42.58044 33173 ft 481 kts 93°
2026-05-08 07:51 41.68494 42.66959 33171 ft 482 kts 93°
2026-05-08 07:52 41.67907 42.75890 33162 ft 482 kts 93°
2026-05-08 07:52 41.67310 42.84828 33174 ft 482 kts 93°
2026-05-08 07:53 41.66708 42.93761 33167 ft 482 kts 94°
2026-05-08 07:53 41.66099 43.02688 33172 ft 483 kts 94°
2026-05-08 07:54 41.65482 43.11638 33173 ft 483 kts 94°
2026-05-08 07:54 41.64857 43.20586 33180 ft 484 kts 94°
2026-05-08 07:55 41.64225 43.29543 33176 ft 484 kts 94°
2026-05-08 07:55 41.63586 43.38501 33175 ft 485 kts 94°
2026-05-08 07:56 41.62937 43.47483 33179 ft 485 kts 94°
2026-05-08 07:56 41.62282 43.56460 33175 ft 485 kts 95°
2026-05-08 07:57 41.61620 43.65442 33183 ft 486 kts 95°
2026-05-08 07:57 41.60951 43.74425 33181 ft 486 kts 95°
2026-05-08 07:58 41.60273 43.83422 33185 ft 487 kts 95°
2026-05-08 07:58 41.59587 43.92428 33179 ft 488 kts 95°
2026-05-08 07:59 41.58895 44.01433 33180 ft 488 kts 95°
2026-05-08 07:59 41.58194 44.10463 33175 ft 488 kts 95°
2026-05-08 08:00 41.57480 44.19493 33180 ft 489 kts 97°
2026-05-08 08:00 41.56023 44.28354 33175 ft 490 kts 108°
2026-05-08 08:01 41.53840 44.36974 33174 ft 491 kts 109°
2026-05-08 08:01 41.51644 44.45622 33172 ft 493 kts 109°
2026-05-08 08:02 41.49475 44.54302 33177 ft 494 kts 109°
2026-05-08 08:02 41.47312 44.62996 33179 ft 494 kts 109°
2026-05-08 08:03 41.45141 44.71688 33177 ft 494 kts 109°
2026-05-08 08:03 41.42960 44.80378 33174 ft 494 kts 109°
2026-05-08 08:04 41.40772 44.89063 33173 ft 494 kts 110°
2026-05-08 08:04 41.38579 44.97739 33174 ft 494 kts 110°
2026-05-08 08:05 41.36382 45.06408 33184 ft 494 kts 110°
2026-05-08 08:05 41.34168 45.15081 33177 ft 495 kts 110°
2026-05-08 08:06 41.31944 45.23755 33176 ft 496 kts 110°
2026-05-08 08:06 41.29714 45.32433 33167 ft 495 kts 110°
2026-05-08 08:07 41.27482 45.41095 33167 ft 495 kts 111°
2026-05-08 08:07 41.25241 45.49755 33171 ft 496 kts 111°
2026-05-08 08:08 41.23008 45.58358 33172 ft 496 kts 111°
2026-05-08 08:08 41.20749 45.67022 33172 ft 496 kts 111°
2026-05-08 08:09 41.18462 45.75673 33176 ft 497 kts 112°
2026-05-08 08:09 41.16160 45.84328 33170 ft 497 kts 112°
2026-05-08 08:10 41.13854 45.92981 33181 ft 498 kts 112°
2026-05-08 08:10 41.11541 46.01639 33178 ft 498 kts 112°
2026-05-08 08:11 41.09597 46.08895 33185 ft 499 kts 112°
2026-05-08 08:11 41.07267 46.17561 33183 ft 499 kts 112°
2026-05-08 08:12 41.04931 46.26227 33191 ft 500 kts 113°
2026-05-08 08:12 41.02595 46.34904 33190 ft 501 kts 112°
2026-05-08 08:13 41.00296 46.43545 33196 ft 501 kts 113°
2026-05-08 08:13 40.97971 46.52254 33193 ft 502 kts 113°
2026-05-08 08:14 40.95632 46.60971 33187 ft 503 kts 113°
2026-05-08 08:14 40.93285 46.69686 33197 ft 503 kts 113°
2026-05-08 08:15 40.90947 46.78415 33183 ft 505 kts 111°
2026-05-08 08:15 40.89410 46.87499 33189 ft 511 kts 100°
2026-05-08 08:16 40.88770 46.96869 33197 ft 512 kts 98°
2026-05-08 08:16 40.88152 47.06251 33192 ft 513 kts 99°
2026-05-08 08:17 40.87477 47.15651 33184 ft 514 kts 99°
2026-05-08 08:17 40.86775 47.25067 33191 ft 515 kts 99°
2026-05-08 08:18 40.86064 47.34492 33199 ft 516 kts 99°
2026-05-08 08:18 40.85348 47.43942 33204 ft 518 kts 99°
2026-05-08 08:19 40.84630 47.53416 33204 ft 519 kts 99°
2026-05-08 08:19 40.84027 47.62931 33210 ft 521 kts 98°
2026-05-08 08:20 40.83465 47.72487 33209 ft 522 kts 98°
2026-05-08 08:20 40.82881 47.82055 33221 ft 523 kts 99°
2026-05-08 08:21 40.82273 47.91645 33215 ft 525 kts 99°
2026-05-08 08:21 40.81650 48.01254 33211 ft 525 kts 99°
2026-05-08 08:22 40.81021 48.10860 33209 ft 526 kts 99°
2026-05-08 08:22 40.80384 48.20478 33193 ft 526 kts 99°
2026-05-08 08:23 40.79739 48.30093 33196 ft 526 kts 99°
2026-05-08 08:23 40.79087 48.39702 33190 ft 525 kts 99°
2026-05-08 08:24 40.78426 48.49310 33185 ft 525 kts 99°
2026-05-08 08:24 40.77760 48.58902 33176 ft 525 kts 100°
2026-05-08 08:25 40.77089 48.68416 33174 ft 524 kts 100°
2026-05-08 08:25 40.76407 48.77979 33166 ft 524 kts 100°
2026-05-08 08:26 40.75717 48.87545 33170 ft 524 kts 101°
2026-05-08 08:26 40.75018 48.97106 33167 ft 524 kts 101°
2026-05-08 08:27 40.74313 49.06674 33162 ft 524 kts 101°
2026-05-08 08:27 40.73600 49.16246 33172 ft 525 kts 101°
2026-05-08 08:28 40.72872 49.25818 33166 ft 524 kts 102°
2026-05-08 08:28 40.71792 49.35286 33144 ft 521 kts 105°
2026-05-08 08:29 40.70600 49.44706 33150 ft 522 kts 105°
2026-05-08 08:29 40.69485 49.54153 33152 ft 521 kts 105°
2026-05-08 08:30 40.68349 49.63586 33151 ft 521 kts 105°
2026-05-08 08:30 40.66620 49.77712 33134 ft 521 kts 105°
2026-05-08 08:31 40.65460 49.87124 33131 ft 520 kts 106°
2026-05-08 08:31 40.64303 49.96462 33127 ft 520 kts 106°
2026-05-08 08:32 40.63132 50.05856 33128 ft 520 kts 106°
2026-05-08 08:32 40.61952 50.15250 33125 ft 520 kts 107°
2026-05-08 08:33 40.60763 50.24648 33129 ft 521 kts 107°
2026-05-08 08:33 40.59567 50.34045 33134 ft 521 kts 107°
2026-05-08 08:34 40.58360 50.43454 33128 ft 522 kts 107°
2026-05-08 08:34 40.57145 50.52874 33136 ft 523 kts 107°
2026-05-08 08:35 40.55919 50.62317 33140 ft 524 kts 107°
2026-05-08 08:35 40.54684 50.71765 33141 ft 525 kts 107°
2026-05-08 08:36 40.53440 50.81224 33149 ft 525 kts 107°
2026-05-08 08:36 40.52187 50.90692 33159 ft 526 kts 107°
2026-05-08 08:37 40.51199 51.00263 33162 ft 530 kts 103°
2026-05-08 08:37 40.50372 51.09904 33150 ft 531 kts 103°
2026-05-08 08:38 40.49522 51.19538 33155 ft 531 kts 104°
2026-05-08 08:38 40.48636 51.29171 33152 ft 531 kts 104°
2026-05-08 08:39 40.47740 51.38801 33148 ft 531 kts 104°
2026-05-08 08:39 40.46834 51.48428 33153 ft 530 kts 104°
2026-05-08 08:40 40.45356 51.57820 33156 ft 523 kts 111°
2026-05-08 08:40 40.43592 51.67081 33150 ft 523 kts 111°
2026-05-08 08:41 40.41838 51.76360 33153 ft 524 kts 111°
2026-05-08 08:41 40.40109 51.85656 33149 ft 525 kts 111°
2026-05-08 08:42 40.38383 51.94958 33144 ft 525 kts 111°
2026-05-08 08:42 40.36658 52.04199 33147 ft 525 kts 111°
2026-05-08 08:43 40.34912 52.13494 33135 ft 525 kts 111°
2026-05-08 08:43 40.33157 52.22784 33143 ft 525 kts 111°
2026-05-08 08:44 40.31397 52.32064 33137 ft 525 kts 111°
2026-05-08 08:44 40.29629 52.41339 33138 ft 525 kts 111°
2026-05-08 08:45 40.27855 52.50608 33130 ft 525 kts 111°
2026-05-08 08:45 40.26073 52.59876 33127 ft 525 kts 111°
2026-05-08 08:46 40.24291 52.69139 33123 ft 525 kts 111°
2026-05-08 08:46 40.22505 52.78414 33127 ft 526 kts 111°
2026-05-08 08:47 40.20709 52.87692 33124 ft 527 kts 111°
2026-05-08 08:47 40.18903 52.96980 33125 ft 527 kts 111°
2026-05-08 08:48 40.17087 53.06273 33130 ft 528 kts 111°
2026-05-08 08:48 40.15262 53.15569 33125 ft 528 kts 111°
2026-05-08 08:49 40.13440 53.24809 33119 ft 529 kts 111°
2026-05-08 08:49 40.11585 53.34175 33106 ft 529 kts 112°
2026-05-08 08:50 40.09746 53.43416 33094 ft 529 kts 112°
2026-05-08 08:50 40.07887 53.52713 33090 ft 529 kts 112°
2026-05-08 08:51 40.06020 53.62005 33098 ft 530 kts 112°
2026-05-08 08:51 40.04142 53.71309 33097 ft 531 kts 113°
2026-05-08 08:52 40.02254 53.80626 33094 ft 532 kts 113°
2026-05-08 08:52 40.00353 53.89964 33090 ft 533 kts 113°
2026-05-08 08:53 39.98444 53.99300 33108 ft 534 kts 113°
2026-05-08 08:53 39.96522 54.08655 33100 ft 534 kts 114°
2026-05-08 08:54 39.94594 54.18005 33094 ft 535 kts 114°
2026-05-08 08:54 39.92652 54.27373 33099 ft 536 kts 114°
2026-05-08 08:55 39.90702 54.36750 33090 ft 537 kts 114°
2026-05-08 08:55 39.88740 54.46135 33084 ft 537 kts 114°
2026-05-08 08:56 39.86748 54.55491 33085 ft 537 kts 115°
2026-05-08 08:56 39.84738 54.64853 33091 ft 537 kts 115°
2026-05-08 08:57 39.82727 54.74214 33086 ft 538 kts 115°
2026-05-08 08:57 39.81056 54.82002 33085 ft 538 kts 115°
2026-05-08 08:58 39.78718 54.92971 33080 ft 539 kts 115°
2026-05-08 08:58 39.76726 55.02292 33090 ft 540 kts 115°
2026-05-08 08:59 39.75713 55.07001 33269 ft 542 kts 115°
2026-05-08 08:59 39.74700 55.11708 33618 ft 540 kts 115°
2026-05-08 08:59 39.73689 55.16399 33997 ft 538 kts 115°
2026-05-08 08:59 39.73007 55.19556 34205 ft 537 kts 115°
2026-05-08 09:00 39.71996 55.24226 34503 ft 536 kts 115°
2026-05-08 09:00 39.70658 55.30386 34847 ft 535 kts 115°
2026-05-08 09:00 39.69974 55.33527 34985 ft 535 kts 115°
2026-05-08 09:00 39.68955 55.38185 35038 ft 538 kts 115°
2026-05-08 09:01 39.66915 55.47445 35069 ft 536 kts 115°
2026-05-08 09:01 39.64865 55.56714 35063 ft 533 kts 116°
2026-05-08 09:02 39.62817 55.65934 35068 ft 531 kts 116°
2026-05-08 09:02 39.60767 55.75121 35080 ft 530 kts 116°
2026-05-08 09:03 39.58714 55.84291 35072 ft 530 kts 116°
2026-05-08 09:03 39.56654 55.93468 35074 ft 531 kts 116°
2026-05-08 09:04 39.54593 56.02665 35069 ft 532 kts 116°
2026-05-08 09:04 39.52526 56.11875 35071 ft 533 kts 116°
2026-05-08 09:05 39.50446 56.21101 35070 ft 534 kts 116°
2026-05-08 09:05 39.48357 56.30329 35071 ft 535 kts 116°
2026-05-08 09:06 39.46256 56.39567 35076 ft 535 kts 116°
2026-05-08 09:06 39.44148 56.48799 35071 ft 535 kts 116°
2026-05-08 09:07 39.42036 56.58013 35064 ft 534 kts 116°
2026-05-08 09:07 39.39922 56.67200 35067 ft 532 kts 116°
2026-05-08 09:08 39.37807 56.76357 35066 ft 531 kts 116°
2026-05-08 09:08 39.35650 56.85466 35064 ft 528 kts 117°
2026-05-08 09:09 39.33342 56.94446 35064 ft 526 kts 117°
2026-05-08 09:09 39.31003 57.03389 35070 ft 526 kts 117°
2026-05-08 09:10 39.28678 57.12339 35070 ft 526 kts 117°
2026-05-08 09:10 39.26357 57.21313 35083 ft 528 kts 116°
2026-05-08 09:11 39.24025 57.30310 35064 ft 530 kts 116°
2026-05-08 09:11 39.21676 57.39337 35083 ft 532 kts 116°
2026-05-08 09:12 39.19310 57.48392 35079 ft 534 kts 116°
2026-05-08 09:12 39.16943 57.57418 35081 ft 536 kts 116°
2026-05-08 09:13 39.14529 57.66587 35081 ft 537 kts 116°
2026-05-08 09:13 39.12119 57.75710 35080 ft 538 kts 116°
2026-05-08 09:14 39.09718 57.84768 35076 ft 538 kts 116°
2026-05-08 09:14 39.07293 57.93887 35076 ft 538 kts 115°
2026-05-08 09:15 39.04863 58.02986 35078 ft 537 kts 115°
2026-05-08 09:15 39.02428 58.12070 35077 ft 537 kts 115°
2026-05-08 09:16 38.99988 58.21140 35079 ft 536 kts 115°
2026-05-08 09:16 38.97545 58.30191 35077 ft 536 kts 115°
2026-05-08 09:17 38.95094 58.39237 35080 ft 536 kts 115°
2026-05-08 09:17 38.92638 58.48275 35079 ft 536 kts 115°
2026-05-08 09:18 38.90176 58.57305 35075 ft 536 kts 115°
2026-05-08 09:18 38.87441 58.66222 35076 ft 529 kts 123°
2026-05-08 09:19 38.84117 58.74614 35083 ft 528 kts 124°
2026-05-08 09:19 38.80777 58.82937 35076 ft 529 kts 123°
2026-05-08 09:20 38.77444 58.91356 35079 ft 530 kts 123°
2026-05-08 09:20 38.74124 58.99784 35072 ft 530 kts 123°
2026-05-08 09:21 38.70790 59.08223 35062 ft 531 kts 123°